Coffeyville, KS

4:21 AM CDT on August 23, 2017 (GMT -0500)
Coffeyville Municipal

Weather History for KCFV - January, 2013

Change the Weather History Date:

Saturday, January 12, 2013

  Actual Average Record
Temperature  
Mean Temperature 44 °F -  
Max Temperature 61 °F 41 °F 70 °F (2014)
Min Temperature 25 °F 22 °F 1 °F (1997)
Degree Days  
Heating Degree Days 22    
Moisture  
Dew Point 25 °F    
Average Humidity 72    
Maximum Humidity 86    
Minimum Humidity 23    
Precipitation  
Precipitation 0.06 in - - ()
Sea Level Pressure  
Sea Level Pressure 30.00 in    
Wind  
Wind Speed 15 mph (North)    
Max Wind Speed 22 mph    
Max Gust Speed 31 mph    
Visibility 8 miles    
Events Rain , Snow    
Averages and records for this station are not official NWS values.
T = Trace of Precipitation, MM = Missing Value Source: NWS Daily Summary

Daily Weather History Graph

Daily Weather History Graph

Search for Another Location

Airport or City:

Trip Planner

Search our weather history database for the weather conditions in past years. The results will help you decide how hot, cold, wet, or windy it might be!

Date:

Astronomy

Jan. 12, 2013 Rise Set
Actual Time 7:35 AM CST 5:26 PM CST
Civil Twilight 7:07 AM CST 5:54 PM CST
Nautical Twilight 6:34 AM CST 6:26 PM CST
Astronomical Twilight 6:03 AM CST 6:58 PM CST
Moon 7:57 AM CST (1/12) 6:53 PM CST (1/12)
Length of Visible Light 10h 47m
Length of Day
9h 50m
New Moon, 1% of the Moon is Illuminated
Jan 12
New Moon
Jan 18
First Quarter
Jan 26
Full
Feb 3
Last Quarter
Feb 10
New

Hourly Weather History & Observations

Time (CST) Temp. Windchill Dew Point Humidity Pressure Visibility Wind Dir Wind Speed Gust Speed Precip Events Conditions
12:52 AM 61.0 °F - 23.0 °F 23% 29.82 in 10.0 mi West 15.0 mph - N/A   Overcast
1:52 AM 57.0 °F - 27.0 °F 32% 29.85 in 10.0 mi NW 12.7 mph - N/A   Overcast
3:52 AM 46.0 °F 38.5 °F 32.0 °F 58% 29.91 in 10.0 mi NNW 19.6 mph 24.2 mph N/A   Overcast
4:52 AM 42.1 °F 34.2 °F 33.1 °F 70% 29.93 in 10.0 mi NNW 16.1 mph 23.0 mph N/A   Overcast
5:52 AM 39.9 °F 31.1 °F 30.9 °F 70% 29.94 in 10.0 mi North 17.3 mph - N/A   Overcast
6:52 AM 37.9 °F 29.6 °F 28.0 °F 68% 29.96 in 10.0 mi North 13.8 mph - N/A   Overcast
7:52 AM 37.0 °F 27.7 °F 26.1 °F 65% 30.03 in 10.0 mi North 16.1 mph - 0.00 in Rain Light Rain
8:52 AM 34.0 °F 24.6 °F 26.1 °F 73% 30.07 in 10.0 mi North 13.8 mph - 0.00 in Rain Light Rain
9:52 AM 33.1 °F 23.0 °F 27.0 °F 78% 30.02 in 3.0 mi North 15.0 mph - 0.02 in Rain Light Freezing Rain
10:00 AM 33.8 °F 25.3 °F 26.6 °F 75% 30.03 in 7.0 mi North 11.5 mph - 0.00 in Rain Light Freezing Rain
10:23 AM 33.8 °F 24.3 °F 26.6 °F 75% 30.03 in 10.0 mi NNE 13.8 mph - 0.01 in Rain Light Rain
10:52 AM 33.1 °F 23.9 °F 25.0 °F 72% 30.03 in 10.0 mi North 12.7 mph - 0.01 in   Overcast
11:52 AM 34.0 °F 23.0 °F 24.1 °F 67% 29.99 in 10.0 mi NNE 18.4 mph - N/A   Overcast
12:52 PM 33.1 °F 22.6 °F 21.9 °F 64% 29.98 in 10.0 mi North 16.1 mph - 0.00 in   Overcast
1:52 PM 33.1 °F 22.2 °F 23.0 °F 66% 29.96 in 10.0 mi North 17.3 mph - N/A   Overcast
2:28 PM 32.0 °F 21.2 °F 24.8 °F 75% 29.96 in 2.5 mi North 16.1 mph - 0.02 in Rain Light Freezing Rain
2:37 PM 32.0 °F 22.1 °F 24.8 °F 75% 29.97 in 3.0 mi North 13.8 mph - 0.03 in Rain Light Freezing Rain
2:52 PM 30.9 °F 21.7 °F 26.1 °F 82% 30.00 in 10.0 mi North 11.5 mph - 0.03 in Rain Light Freezing Rain
3:03 PM 30.2 °F 18.9 °F 26.6 °F 86% 29.98 in 10.0 mi North 16.1 mph - 0.00 in   Overcast
3:52 PM 30.9 °F 21.2 °F 26.1 °F 82% 30.03 in 6.0 mi North 12.7 mph 24.2 mph 0.00 in   Overcast
4:02 PM 30.2 °F 18.1 °F 26.6 °F 86% 29.99 in 10.0 mi North 18.4 mph - 0.00 in   Overcast
4:52 PM 28.9 °F 15.4 °F 24.1 °F 82% 30.02 in 10.0 mi North 21.9 mph 31.1 mph 0.00 in   Overcast
5:01 PM 28.4 °F 14.7 °F 24.8 °F 86% 29.99 in 10.0 mi North 21.9 mph 31.1 mph N/A   Overcast
5:52 PM 28.0 °F 17.5 °F 24.1 °F 85% 30.03 in 3.0 mi North 12.7 mph - 0.00 in Snow Light Snow
6:01 PM 28.4 °F 17.0 °F 24.8 °F 86% 30.00 in 1.8 mi North 15.0 mph 23.0 mph 0.00 in Snow Light Snow
6:21 PM 28.4 °F 18.5 °F 24.8 °F 86% 30.01 in 3.0 mi North 11.5 mph 24.2 mph 0.00 in Snow Light Snow
6:33 PM 28.4 °F 18.5 °F 24.8 °F 86% 30.01 in 9.0 mi North 11.5 mph - 0.00 in   Overcast
6:52 PM 28.0 °F 18.6 °F 24.1 °F 85% 30.02 in 10.0 mi NNE 10.4 mph - 0.00 in   Overcast
7:52 PM 28.0 °F 16.5 °F 19.0 °F 69% 30.06 in 10.0 mi NNW 15.0 mph - N/A   Overcast
8:52 PM 28.0 °F 16.1 °F 18.0 °F 66% 30.05 in 10.0 mi North 16.1 mph - N/A   Overcast
9:52 PM 27.0 °F 15.2 °F 19.0 °F 72% 30.06 in 10.0 mi North 15.0 mph - N/A   Overcast
10:52 PM 26.1 °F 14.0 °F 18.0 °F 71% 30.08 in 10.0 mi North 15.0 mph - N/A   Overcast
11:52 PM 25.0 °F 15.5 °F 18.0 °F 75% 30.11 in 10.0 mi NNW 9.2 mph - N/A   Clear